Location: Mirande
(43.5139°N, 0.4029°E)
Time: 15:00:44
(UTC+00:00)

Daily predictions for brighter satellites

Satellite Brightness Start Highest point End
(mag) Time Altitude Azimuth Time Altitude Azimuth Time Altitude Azimuth
Meteor 2-5 Rocket 3.9 17:12:33 10° S 17:17:58 55° E 17:23:22 10° NNE
ATLAS 5 CENTAUR R/B 1.4 17:14:40 10° SSW 17:18:36 79° SE 17:23:00 10° NE
Cosmos 773 Rocket 4.5 17:16:09 10° N 17:20:57 37° ENE 17:25:42 10° SE
CZ-4B R/B 2.6 17:21:12 10° NE 17:24:01 24° E 17:26:46 10° SSE
NOAA 12 4.2 17:22:32 10° SSE 17:27:46 87° WSW 17:33:02 10° NNW
Landsat 5 3.7 17:23:52 10° N 17:27:48 67° WNW 17:31:37 10° SSW
Cosmos 1726 Rocket 4.3 17:23:58 10° N 17:27:54 32° ENE 17:31:49 10° SE
Cosmos 2263 Rocket 2.3 17:31:11 10° SSW 17:36:52 82° WNW 17:42:34 10° NNE
CORIOLIS 4.3 17:32:20 10° SSE 17:37:45 86° WSW 17:43:11 10° NNW
CZ-4C R/B 4.3 17:36:01 10° N 17:38:58 37° WNW 17:41:54 10° SW
NOAA 11 4.2 17:33:56 10° SSE 17:39:27 89° ENE 17:44:59 10° NNW
Cosmos 2279 Rocket 4.1 17:33:56 10° N 17:40:07 58° ENE 17:46:15 10° SSE
SMAP 3.6 17:37:23 10° S 17:41:59 63° W 17:46:37 10° NNW
BREEZE-M DEB (TANK) 2.2 17:38:42 10° WNW 17:42:39 80° SSW 17:44:55 10° ESE
USA 234 4.4 17:37:40 10° ENE 17:43:00 28° N 17:48:22 10° NW
Cosmos 1455 3.8 17:41:12 10° NE 17:43:27 15° ENE 17:45:43 10° ESE
COSMOS 2455 3.3 17:37:53 10° S 17:43:30 43° ESE 17:49:10 10° NE
COSMO-SKYMED 1 2.9 17:41:00 10° NNE 17:45:10 43° E 17:49:17 10° S
Cosmos 1939 Rocket 2.9 17:41:48 10° SSE 17:45:51 60° ENE 17:49:54 10° N
Cosmos 1300 2.6 17:43:27 10° N 17:47:18 83° E 17:51:06 10° S
Okean-O 3.6 17:45:44 10° ESE 17:49:23 26° ENE 17:53:03 10° N
Cosmos 1689 Rocket 3.7 17:50:14 15° E 17:50:22 15° E 17:52:11 10° SE
Cosmos 1538 Rocket 4.4 17:46:33 10° N 17:51:25 39° ENE 17:56:14 10° SE
Cosmos 1634 Rocket 4.3 17:46:17 10° NNW 17:52:31 73° W 17:58:45 10° S
Okean O Rocket 2.2 17:49:35 10° S 17:53:59 62° WSW 17:58:24 10° NNW
EXPRESS MD2 4.4 17:46:39 10° WNW 17:55:34 62° NNE 17:59:10 15° E
Cosmos 1777 Rocket 4.0 17:50:28 10° S 17:55:38 62° ESE 18:00:52 10° NNE
ATLAS 3B R/B 3.4 17:48:49 10° NW 17:55:41 60° WSW 18:02:48 10° SSE
Aureole 2 Rocket 3.4 17:53:22 10° SSE 17:55:41 21° ESE 17:56:23 19° E
ARGOS 4.2 17:51:42 10° ESE 17:55:50 23° ENE 17:59:58 10° NNE
CZ-4 R/B 2.1 17:52:33 10° SE 17:56:10 31° ENE 17:59:46 10° N
Meteor 1-24 Rocket 3.6 17:50:47 10° S 17:56:11 89° WNW 18:01:30 10° N
MOS 1 Rocket 3.4 17:54:18 10° NNE 17:58:27 44° E 18:02:31 10° S
Cosmos 1943 3.5 17:52:59 10° NNW 17:58:40 73° WSW 18:04:16 10° SSE
Feng Yun 1-1 Rocket 4.1 17:55:04 10° SSE 18:00:26 72° ENE 18:05:57 10° N
Cosmos 1315 Rocket 3.2 17:57:46 10° NNW 18:01:43 65° W 18:05:40 10° S
CZ-4 R/B 4.5 17:59:31 10° SSE 18:03:33 55° ENE 18:07:37 10° N
CZ-2C R/B 4.0 18:04:57 18° ENE 18:05:58 19° E 18:09:47 10° SE
Cosmos 1844 4.5 18:01:47 10° SSE 18:06:39 31° ESE 18:09:55 18° NE
ERS-2 2.4 18:03:34 11° NNE 18:06:53 44° E 18:10:22 10° S
SKYMED 3 4.5 18:04:50 10° NNE 18:09:13 80° ESE 18:13:32 10° S
BREEZE-M DEB (TANK) 3.4 18:08:51 10° WNW 18:10:42 20° N 18:11:06 20° NNE
TELKOM 3 3.3 18:10:45 10° SW 18:13:04 51° SSE 18:13:31 43° ESE
YAOGAN 1 2.8 18:13:19 10° SE 18:17:26 45° ENE 18:21:35 10° N
Cosmos 1892 Rocket 3.5 18:14:01 10° S 18:18:22 87° W 18:22:43 10° N
Cosmos 1606 Rocket 4.3 18:14:05 10° NNW 18:18:23 57° W 18:22:41 10° S
H-2A R/B 3.9 18:15:31 10° N 18:19:26 31° WNW 18:23:16 10° SW
Cosmos 1092 Rocket 4.5 18:13:59 10° SSE 18:19:31 35° E 18:25:02 10° NNE
IRS-1C Rocket 4.0 18:15:22 10° SSE 18:20:36 80° ENE 18:25:53 10° NNW
Meteor 1-21 Rocket 4.4 18:18:24 10° SSE 18:23:36 45° E 18:28:51 10° NNE
X-37B 1.5 18:25:45 10° SW 18:28:41 34° SSE 18:28:57 33° SE
CZ-4C R/B 4.2 18:24:41 10° WNW 18:28:41 21° NNW 18:33:15 10° NNE
ISS -3.4 18:26:56 10° SW 18:30:10 47° SE 18:30:32 45° ESE
Cosmos 1844 Rocket 2.7 18:26:09 10° S 18:31:43 61° ESE 18:35:26 21° NE
SKYMED 2 4.2 18:28:56 10° N 18:33:12 56° WNW 18:37:26 10° SSW
Lacrosse 5 2.2 18:29:09 10° NW 18:34:02 45° NE 18:35:29 35° ENE
Helios 1A Rocket 2.9 18:32:08 10° SSE 18:36:11 58° ENE 18:40:16 10° N
Nadezhda 4 Rocket 3.9 18:31:34 10° S 18:37:49 81° E 18:44:04 10° N
SJ 16-02 1.2 18:34:13 10° S 18:38:35 65° ESE 18:40:20 34° NE
CZ-2C R/B 3.4 18:33:41 10° S 18:38:52 69° WSW 18:44:23 10° NNW
DMSP B5D1-3 4.5 18:36:28 15° NNE 18:40:41 59° E 18:45:42 10° S
CZ-2D R/B 4.4 18:37:04 10° S 18:40:46 45° W 18:44:30 10° NNW
Cosmos 44 4.3 18:38:19 10° S 18:41:32 27° SE 18:41:32 27° SE
H-2A R/B 1.8 18:42:29 10° SSE 18:47:25 85° ENE 18:52:32 10° NNW
Cosmos 2058 Rocket 3.7 18:43:15 10° NNW 18:47:41 58° W 18:52:06 10° S
USA 267 3.5 18:48:30 35° E 18:50:44 47° SE 18:56:59 10° SSW
Cosmos 923 Rocket 4.0 18:47:58 10° NNW 18:53:17 61° ENE 18:55:17 36° SE
CSL-04 Rocket 3.5 18:49:55 10° SSE 18:55:15 69° ENE 19:00:42 10° N
Meteor 2-1 Rocket 4.1 18:49:50 10° N 18:55:26 87° W 19:00:57 10° S
CZ-4B R/B 4.1 18:53:36 10° NNW 18:56:04 19° WNW 18:58:30 10° WSW
Okean 1-7 Rocket 4.4 18:51:40 10° SSW 18:56:06 53° WNW 19:00:35 10° N
SAR-Lupe-4 4.4 18:56:43 28° N 18:58:20 50° WNW 19:01:47 10° SSW
Meteor 2-10 Rocket 4.5 18:53:14 10° NNW 18:58:35 51° W 19:03:40 10° SSW
Cosmos 1898 Rocket 4.1 18:54:48 10° S 18:58:42 39° SE 18:58:42 39° SE
Cosmos 1680 Rocket 3.6 18:55:54 10° NNW 19:00:39 52° NE 19:00:39 52° NE
Cosmos 1818 3.6 18:57:57 10° SW 19:03:23 80° NW 19:05:20 41° NNE
ATLAS 5 CENTAUR R/B 3.9 19:01:04 10° WNW 19:03:53 17° NNW 19:06:00 13° N
Cosmos 2344 4.5 18:55:11 10° NNW 19:04:00 49° NE 19:08:26 35° E
Cosmos 2098 Rocket 4.4 18:58:28 10° SSE 19:05:08 53° E 19:12:19 10° NNE
Cosmos 158 Rocket 3.9 19:01:04 10° NNW 19:06:27 85° ENE 19:09:28 27° SSE
Cosmos 1626 Rocket 3.8 19:07:33 10° SSW 19:11:54 68° W 19:13:07 45° NNW
Cosmos 2026 Rocket 3.8 19:09:04 10° S 19:15:07 74° E 19:18:41 27° NNE
Cosmos 1455 3.6 19:15:41 10° NNW 19:19:14 38° W 19:22:47 10° SSW
USA 234 3.6 19:24:50 44° NNE 19:25:02 44° NNE 19:31:10 10° NW
Okean-O 4.4 19:21:46 10° SSW 19:25:44 32° W 19:29:43 10° NNW
COSMOS 2455 4.1 19:24:01 10° WSW 19:29:31 36° NW 19:32:46 22° N
Iridium 4 Rocket 3.8 19:25:08 10° N 19:30:50 72° W 19:36:06 10° S
CZ-4 R/B 3.8 19:27:55 10° SSW 19:31:12 23° W 19:34:27 10° NW
ARGOS 3.9 19:30:32 10° S 19:35:44 51° W 19:40:59 10° NNW
CZ-2C R/B 3.0 19:46:26 63° WNW 19:46:39 64° WNW 19:52:10 10° SSW
Lacrosse 5 3.9 20:12:18 10° WNW 20:14:44 25° W 20:14:44 25° W
SJ 16-02 4.2 20:15:13 10° W 20:17:23 14° WNW 20:17:23 14° WNW
NOSS 3-1 (C) 4.2 20:10:50 10° NW 20:17:36 72° WNW 20:17:36 72° WNW
USA 267 4.2 20:35:52 42° W 20:35:52 42° W 20:40:13 10° WSW
